Time,TemperatureF,DewpointF,PressureIn,WindDirection,WindDirectionDegrees,WindSpeedMPH,WindSpeedGustMPH,Humidity,HourlyPrecipIn,Conditions,Clouds,dailyrainin,SoftwareType,DateUTC
2013-03-26 00:00:00,29.2,22.6,30.20,WNW,284,3.0,11.0,76,0.00,,CLR,0.00,VWS V14.01,2013-03-26 05:00:00,
2013-03-26 00:03:00,29.1,22.5,30.20,WNW,292,3.0,8.0,76,0.00,,CLR,0.00,VWS V14.01,2013-03-26 05:03:00,
2013-03-26 00:08:00,29.0,22.4,30.20,WNW,290,5.0,10.0,76,0.00,,CLR,0.00,VWS V14.01,2013-03-26 05:08:00,
2013-03-26 00:13:00,29.0,22.7,30.20,NNW,338,5.0,10.0,77,0.00,,CLR,0.00,VWS V14.01,2013-03-26 05:13:00,
2013-03-26 00:18:00,29.0,22.7,30.20,WNW,284,7.0,10.0,77,0.00,,CLR,0.00,VWS V14.01,2013-03-26 05:18:00,
2013-03-26 00:23:00,29.0,22.7,30.20,WNW,297,2.0,10.0,77,0.00,,CLR,0.00,VWS V14.01,2013-03-26 05:23:00,
2013-03-26 00:28:00,29.0,23.0,30.20,WNW,296,9.0,11.0,78,0.00,,CLR,0.00,VWS V14.01,2013-03-26 05:28:00,
2013-03-26 00:30:00,29.0,23.0,30.20,West,271,5.0,11.0,78,0.00,,CLR,0.00,VWS V14.01,2013-03-26 05:30:00,
2013-03-26 00:33:00,29.1,23.1,30.20,NW,306,8.0,8.0,78,0.00,,CLR,0.00,VWS V14.01,2013-03-26 05:33:00,
2013-03-26 00:38:00,29.1,23.1,30.20,NNW,341,5.0,10.0,78,0.00,,CLR,0.00,VWS V14.01,2013-03-26 05:38:00,
2013-03-26 00:43:00,29.2,23.2,30.20,NW,312,10.0,10.0,78,0.00,,FEW037,0.00,VWS V14.01,2013-03-26 05:43:00,
2013-03-26 00:48:00,29.3,23.3,30.20,NW,311,2.0,10.0,78,0.00,,FEW037,0.00,VWS V14.01,2013-03-26 05:48:00,
2013-03-26 00:53:00,29.4,23.4,30.20,West,280,8.0,14.0,78,0.00,,FEW037,0.00,VWS V14.01,2013-03-26 05:53:00,
2013-03-26 00:59:00,29.5,23.5,30.21,West,281,3.0,14.0,78,0.00,,FEW037,0.00,VWS V14.01,2013-03-26 05:59:00,
2013-03-26 01:00:00,29.6,23.6,30.20,WNW,296,3.0,14.0,78,0.00,,CLR,0.00,VWS V14.01,2013-03-26 06:00:00,
2013-03-26 01:04:00,29.6,23.6,30.20,WNW,299,3.0,7.0,78,0.00,,FEW037,0.00,VWS V14.01,2013-03-26 06:04:00,
2013-03-26 01:09:00,29.7,23.7,30.20,NW,314,5.0,8.0,78,0.00,,FEW037,0.00,VWS V14.01,2013-03-26 06:09:00,
2013-03-26 01:14:00,29.7,23.7,30.20,West,275,3.0,9.0,78,0.00,,FEW037,0.00,VWS V14.01,2013-03-26 06:14:00,
2013-03-26 01:19:00,29.8,23.8,30.20,NW,309,3.0,9.0,78,0.00,,FEW037,0.00,VWS V14.01,2013-03-26 06:19:00,
2013-03-26 01:24:00,29.8,23.8,30.20,NW,306,4.0,9.0,78,0.00,,FEW037,0.00,VWS V14.01,2013-03-26 06:24:00,
2013-03-26 01:29:00,29.9,23.9,30.20,WNW,289,5.0,11.0,78,0.00,,FEW037,0.00,VWS V14.01,2013-03-26 06:29:00,
2013-03-26 01:30:00,29.9,23.9,30.20,WNW,302,4.0,11.0,78,0.00,,CLR,0.00,VWS V14.01,2013-03-26 06:30:00,
2013-03-26 01:34:00,29.9,23.9,30.20,WNW,290,5.0,10.0,78,0.00,,FEW037,0.00,VWS V14.01,2013-03-26 06:34:00,
2013-03-26 01:39:00,29.9,23.9,30.20,NW,313,3.0,11.0,78,0.00,,FEW037,0.00,VWS V14.01,2013-03-26 06:39:00,
2013-03-26 01:44:00,29.8,23.8,30.20,NW,309,5.0,11.0,78,0.00,,BKN036,0.00,VWS V14.01,2013-03-26 06:44:00,
2013-03-26 01:49:00,29.7,24.0,30.20,NW,312,7.0,11.0,79,0.00,,BKN036,0.00,VWS V14.01,2013-03-26 06:49:00,
2013-03-26 01:55:00,29.6,23.9,30.20,NW,306,3.0,11.0,79,0.00,,BKN036,0.00,VWS V14.01,2013-03-26 06:55:00,
2013-03-26 02:00:00,29.5,23.8,30.20,WNW,290,1.0,11.0,79,0.00,,BKN036,0.00,VWS V14.01,2013-03-26 07:00:00,
2013-03-26 02:05:00,29.4,23.7,30.20,WNW,296,4.0,7.0,79,0.00,,BKN036,0.00,VWS V14.01,2013-03-26 07:05:00,
2013-03-26 02:10:00,29.3,23.9,30.20,NW,304,4.0,10.0,80,0.00,,BKN036,0.00,VWS V14.01,2013-03-26 07:10:00,
2013-03-26 02:15:00,29.3,23.9,30.20,WNW,300,2.0,10.0,80,0.00,,BKN036,0.00,VWS V14.01,2013-03-26 07:15:00,
2013-03-26 02:20:00,29.2,23.8,30.20,West,281,2.0,10.0,80,0.00,,BKN036,0.00,VWS V14.01,2013-03-26 07:20:00,
2013-03-26 02:25:00,29.1,23.7,30.20,NW,313,2.0,10.0,80,0.00,,BKN036,0.00,VWS V14.01,2013-03-26 07:25:00,
2013-03-26 02:30:00,29.0,23.9,30.20,WNW,290,2.0,3.0,81,0.00,,BKN036,0.00,VWS V14.01,2013-03-26 07:30:00,
2013-03-26 02:35:00,29.0,23.9,30.20,NW,312,6.0,7.0,81,0.00,,BKN036,0.00,VWS V14.01,2013-03-26 07:35:00,
2013-03-26 02:40:00,29.0,23.9,30.20,West,277,4.0,7.0,81,0.00,,BKN036,0.00,VWS V14.01,2013-03-26 07:40:00,
2013-03-26 02:45:00,29.0,23.9,30.20,West,278,1.0,7.0,81,0.00,,OVC030,0.00,VWS V14.01,2013-03-26 07:45:00,
2013-03-26 02:50:00,29.2,24.1,30.20,NW,316,6.0,7.0,81,0.00,,OVC030,0.00,VWS V14.01,2013-03-26 07:50:00,
2013-03-26 02:55:00,29.2,24.1,30.20,NW,323,1.0,7.0,81,0.00,,OVC030,0.00,VWS V14.01,2013-03-26 07:55:00,
2013-03-26 03:00:00,29.2,24.1,30.20,WNW,295,2.0,5.0,81,0.00,,OVC030,0.00,VWS V14.01,2013-03-26 08:00:00,
2013-03-26 03:05:00,29.3,24.2,30.20,WNW,294,1.0,6.0,81,0.00,,OVC030,0.00,VWS V14.01,2013-03-26 08:05:00,
2013-03-26 03:11:00,29.3,24.2,30.20,West,281,1.0,7.0,81,0.00,,OVC030,0.00,VWS V14.01,2013-03-26 08:11:00,
2013-03-26 03:16:00,29.2,24.1,30.20,NW,313,4.0,7.0,81,0.00,,OVC030,0.00,VWS V14.01,2013-03-26 08:16:00,
2013-03-26 03:21:00,29.2,24.1,30.20,WNW,296,0.0,7.0,81,0.00,,OVC030,0.00,VWS V14.01,2013-03-26 08:21:00,
2013-03-26 03:26:00,29.0,24.2,30.20,WNW,290,1.0,7.0,82,0.00,,OVC030,0.00,VWS V14.01,2013-03-26 08:26:00,
2013-03-26 03:30:00,29.0,24.2,30.20,West,277,4.0,7.0,82,0.00,,CLR,0.00,VWS V14.01,2013-03-26 08:30:00,
2013-03-26 03:32:00,29.0,24.2,30.20,NW,306,2.0,6.0,82,0.00,,OVC030,0.00,VWS V14.01,2013-03-26 08:32:00,
2013-03-26 03:37:00,28.9,24.1,30.20,West,278,5.0,6.0,82,0.00,,OVC030,0.00,VWS V14.01,2013-03-26 08:37:00,
2013-03-26 03:42:00,28.8,24.0,30.20,WNW,301,3.0,6.0,82,0.00,,BKN028,0.00,VWS V14.01,2013-03-26 08:42:00,
2013-03-26 03:47:00,28.7,23.9,30.20,West,270,3.0,6.0,82,0.00,,BKN028,0.00,VWS V14.01,2013-03-26 08:47:00,
2013-03-26 03:52:00,28.6,23.8,30.20,West,279,2.0,6.0,82,0.00,,BKN028,0.00,VWS V14.01,2013-03-26 08:52:00,
2013-03-26 03:57:00,28.6,23.8,30.20,West,278,1.0,6.0,82,0.00,,BKN028,0.00,VWS V14.01,2013-03-26 08:57:00,
2013-03-26 04:00:00,28.5,23.7,30.20,WNW,283,3.0,6.0,82,0.00,,CLR,0.00,VWS V14.01,2013-03-26 09:00:00,
2013-03-26 04:02:00,28.5,24.0,30.20,NNW,344,3.0,4.0,83,0.00,,BKN028,0.00,VWS V14.01,2013-03-26 09:02:00,
2013-03-26 04:07:00,28.4,23.9,30.20,WNW,286,1.0,6.0,83,0.00,,BKN028,0.00,VWS V14.01,2013-03-26 09:07:00,
2013-03-26 04:12:00,28.3,23.8,30.20,NW,306,1.0,6.0,83,0.00,,BKN028,0.00,VWS V14.01,2013-03-26 09:12:00,
2013-03-26 04:17:00,28.2,23.7,30.20,WNW,299,3.0,7.0,83,0.00,,BKN028,0.00,VWS V14.01,2013-03-26 09:17:00,
2013-03-26 04:22:00,28.2,23.7,30.20,WNW,303,5.0,7.0,83,0.00,,BKN028,0.00,VWS V14.01,2013-03-26 09:22:00,
2013-03-26 04:27:00,28.1,23.6,30.20,WNW,302,3.0,8.0,83,0.00,,BKN028,0.00,VWS V14.01,2013-03-26 09:27:00,
2013-03-26 04:30:00,28.1,23.6,30.20,NW,305,3.0,8.0,83,0.00,,CLR,0.00,VWS V14.01,2013-03-26 09:30:00,
2013-03-26 04:32:00,28.1,23.6,30.20,WNW,301,6.0,8.0,83,0.00,,BKN028,0.00,VWS V14.01,2013-03-26 09:32:00,
2013-03-26 04:38:00,28.0,23.8,30.20,WNW,291,4.0,8.0,84,0.00,,BKN028,0.00,VWS V14.01,2013-03-26 09:38:00,
2013-03-26 04:43:00,28.0,23.5,30.20,NW,311,2.0,8.0,83,0.00,,FEW026,0.00,VWS V14.01,2013-03-26 09:43:00,
2013-03-26 04:48:00,27.9,23.7,30.20,WNW,301,2.0,8.0,84,0.00,,FEW026,0.00,VWS V14.01,2013-03-26 09:48:00,
2013-03-26 04:53:00,27.9,23.7,30.20,WNW,292,3.0,9.0,84,0.00,,FEW026,0.00,VWS V14.01,2013-03-26 09:53:00,
2013-03-26 04:58:00,27.8,23.6,30.20,West,269,3.0,9.0,84,0.00,,FEW026,0.00,VWS V14.01,2013-03-26 09:58:00,
2013-03-26 05:00:00,27.8,23.6,30.20,NW,325,2.0,9.0,84,0.00,,CLR,0.00,VWS V14.01,2013-03-26 10:00:00,
2013-03-26 05:03:00,27.8,23.6,30.20,NW,314,4.0,6.0,84,0.00,,FEW026,0.00,VWS V14.01,2013-03-26 10:03:00,
2013-03-26 05:08:00,27.7,23.5,30.20,WNW,301,2.0,8.0,84,0.00,,FEW026,0.00,VWS V14.01,2013-03-26 10:08:00,
2013-03-26 05:13:00,27.6,23.4,30.20,NW,315,2.0,8.0,84,0.00,,FEW026,0.00,VWS V14.01,2013-03-26 10:13:00,
2013-03-26 05:18:00,27.6,23.7,30.20,WNW,296,3.0,8.0,85,0.00,,FEW026,0.00,VWS V14.01,2013-03-26 10:18:00,
2013-03-26 05:23:00,27.5,23.6,30.20,NW,313,4.0,8.0,85,0.00,,FEW026,0.00,VWS V14.01,2013-03-26 10:23:00,
2013-03-26 05:28:00,27.5,23.3,30.20,NW,313,3.0,8.0,84,0.00,,FEW026,0.00,VWS V14.01,2013-03-26 10:28:00,
2013-03-26 05:30:00,27.5,23.3,30.20,NW,308,2.0,8.0,84,0.00,,CLR,0.00,VWS V14.01,2013-03-26 10:30:00,
2013-03-26 05:33:00,27.5,23.3,30.20,NW,304,2.0,8.0,84,0.00,,FEW026,0.00,VWS V14.01,2013-03-26 10:33:00,
2013-03-26 05:38:00,27.4,23.2,30.20,West,281,4.0,8.0,84,0.00,,FEW026,0.00,VWS V14.01,2013-03-26 10:38:00,
2013-03-26 05:43:00,27.4,23.2,30.20,WNW,301,2.0,8.0,84,0.00,,CLR,0.00,VWS V14.01,2013-03-26 10:43:00,
2013-03-26 05:48:00,27.3,23.1,30.21,NW,311,2.0,8.0,84,0.00,,CLR,0.00,VWS V14.01,2013-03-26 10:48:00,
2013-03-26 05:54:00,27.2,23.0,30.20,WNW,301,4.0,8.0,84,0.00,,CLR,0.00,VWS V14.01,2013-03-26 10:54:00,
2013-03-26 05:59:00,27.1,22.9,30.21,WNW,297,3.0,8.0,84,0.00,,CLR,0.00,VWS V14.01,2013-03-26 10:59:00,
2013-03-26 06:00:00,27.1,22.9,30.21,WNW,298,5.0,8.0,84,0.00,,CLR,0.00,VWS V14.01,2013-03-26 11:00:00,
2013-03-26 06:04:00,27.1,22.9,30.21,NW,314,2.0,7.0,84,0.00,,CLR,0.00,VWS V14.01,2013-03-26 11:04:00,
2013-03-26 06:09:00,27.1,22.9,30.21,NW,319,5.0,9.0,84,0.00,,CLR,0.00,VWS V14.01,2013-03-26 11:09:00,
2013-03-26 06:14:00,27.1,22.9,30.22,NW,322,1.0,9.0,84,0.00,,CLR,0.00,VWS V14.01,2013-03-26 11:14:00,
2013-03-26 06:19:00,27.1,22.6,30.22,NNW,330,5.0,9.0,83,0.00,,CLR,0.00,VWS V14.01,2013-03-26 11:19:00,
2013-03-26 06:24:00,27.1,22.6,30.22,NNW,327,2.0,9.0,83,0.00,,CLR,0.00,VWS V14.01,2013-03-26 11:24:00,
2013-03-26 06:29:00,27.0,22.5,30.22,NNW,346,5.0,9.0,83,0.00,,CLR,0.00,VWS V14.01,2013-03-26 11:29:00,
2013-03-26 06:30:00,27.0,22.5,30.22,WNW,286,3.0,9.0,83,0.00,,CLR,0.00,VWS V14.01,2013-03-26 11:30:00,
2013-03-26 06:34:00,26.9,22.4,30.23,NNW,329,2.0,5.0,83,0.00,,CLR,0.00,VWS V14.01,2013-03-26 11:34:00,
2013-03-26 06:39:00,26.9,22.4,30.23,NW,325,5.0,5.0,83,0.00,,CLR,0.00,VWS V14.01,2013-03-26 11:39:00,
2013-03-26 06:44:00,26.8,22.3,30.23,WNW,302,3.0,5.0,83,0.00,,CLR,0.00,VWS V14.01,2013-03-26 11:44:00,
2013-03-26 06:49:00,26.8,22.3,30.23,NW,317,2.0,6.0,83,0.00,,CLR,0.00,VWS V14.01,2013-03-26 11:49:00,
2013-03-26 06:55:00,26.8,22.0,30.23,NW,307,4.0,9.0,82,0.00,,CLR,0.00,VWS V14.01,2013-03-26 11:55:00,
2013-03-26 07:00:00,26.9,22.1,30.23,NW,315,1.0,9.0,82,0.00,,CLR,0.00,VWS V14.01,2013-03-26 12:00:00,
2013-03-26 07:05:00,26.9,22.1,30.23,NNW,327,1.0,5.0,82,0.00,,CLR,0.00,VWS V14.01,2013-03-26 12:05:00,
2013-03-26 07:10:00,26.9,22.1,30.24,NW,304,2.0,7.0,82,0.00,,CLR,0.00,VWS V14.01,2013-03-26 12:10:00,
2013-03-26 07:15:00,26.9,22.1,30.24,WNW,300,2.0,7.0,82,0.00,,CLR,0.00,VWS V14.01,2013-03-26 12:15:00,
2013-03-26 07:20:00,26.9,22.1,30.24,WNW,300,3.0,7.0,82,0.00,,CLR,0.00,VWS V14.01,2013-03-26 12:20:00,
2013-03-26 07:25:00,26.9,22.1,30.24,WNW,302,2.0,7.0,82,0.00,,CLR,0.00,VWS V14.01,2013-03-26 12:25:00,
2013-03-26 07:30:00,26.9,22.4,30.25,West,274,0.0,1.0,83,0.00,,CLR,0.00,VWS V14.01,2013-03-26 12:30:00,
2013-03-26 07:35:00,27.0,22.5,30.25,NW,313,1.0,3.0,83,0.00,,CLR,0.00,VWS V14.01,2013-03-26 12:35:00,
2013-03-26 07:40:00,27.0,22.5,30.25,NW,309,1.0,4.0,83,0.00,,CLR,0.00,VWS V14.01,2013-03-26 12:40:00,
2013-03-26 07:46:00,27.1,22.9,30.25,WNW,302,1.0,4.0,84,0.00,,CLR,0.00,VWS V14.01,2013-03-26 12:46:00,
2013-03-26 07:51:00,27.4,23.2,30.26,WNW,286,2.0,7.0,84,0.00,,CLR,0.00,VWS V14.01,2013-03-26 12:51:00,
2013-03-26 07:56:00,27.7,23.2,30.26,WNW,288,1.0,7.0,83,0.00,,CLR,0.00,VWS V14.01,2013-03-26 12:56:00,
2013-03-26 08:00:00,27.9,23.1,30.26,NW,306,3.0,8.0,82,0.00,,CLR,0.00,VWS V14.01,2013-03-26 13:00:00,
2013-03-26 08:01:00,28.0,23.2,30.26,NW,326,3.0,5.0,82,0.00,,CLR,0.00,VWS V14.01,2013-03-26 13:01:00,
2013-03-26 08:07:00,28.3,23.5,30.26,WNW,302,2.0,6.0,82,0.00,,CLR,0.00,VWS V14.01,2013-03-26 13:07:00,
2013-03-26 08:12:00,28.7,23.6,30.27,WNW,298,6.0,8.0,81,0.00,,CLR,0.00,VWS V14.01,2013-03-26 13:12:00,
2013-03-26 08:17:00,29.0,23.9,30.27,NW,317,5.0,9.0,81,0.00,,CLR,0.00,VWS V14.01,2013-03-26 13:17:00,
2013-03-26 08:22:00,29.3,23.9,30.27,NNW,327,4.0,9.0,80,0.00,,CLR,0.00,VWS V14.01,2013-03-26 13:22:00,
2013-03-26 08:27:00,29.6,24.2,30.27,NNW,330,0.0,9.0,80,0.00,,CLR,0.00,VWS V14.01,2013-03-26 13:27:00,
2013-03-26 08:30:00,29.8,24.1,30.27,NW,321,6.0,13.0,79,0.00,,CLR,0.00,VWS V14.01,2013-03-26 13:30:00,
2013-03-26 08:32:00,30.0,24.3,30.27,NW,309,4.0,8.0,79,0.00,,CLR,0.00,VWS V14.01,2013-03-26 13:32:00,
2013-03-26 08:37:00,30.4,24.7,30.27,North,355,4.0,8.0,79,0.00,,CLR,0.00,VWS V14.01,2013-03-26 13:37:00,
2013-03-26 08:42:00,30.7,24.4,30.28,NNW,328,10.0,12.0,77,0.00,,CLR,0.00,VWS V14.01,2013-03-26 13:42:00,
2013-03-26 08:47:00,30.9,24.5,30.28,WNW,300,5.0,12.0,77,0.00,,CLR,0.00,VWS V14.01,2013-03-26 13:47:00,
2013-03-26 08:52:00,31.2,24.8,30.28,NW,317,5.0,12.0,77,0.00,,CLR,0.00,VWS V14.01,2013-03-26 13:52:00,
2013-03-26 08:58:00,31.5,24.8,30.29,WNW,283,9.0,12.0,76,0.00,,CLR,0.00,VWS V14.01,2013-03-26 13:58:00,
2013-03-26 09:00:00,31.5,24.5,30.29,NW,311,3.0,12.0,75,0.00,,CLR,0.00,VWS V14.01,2013-03-26 14:00:00,
2013-03-26 09:03:00,31.7,24.7,30.29,NW,321,4.0,7.0,75,0.00,,CLR,0.00,VWS V14.01,2013-03-26 14:03:00,
2013-03-26 09:08:00,32.1,24.8,30.29,WNW,296,7.0,10.0,74,0.00,,CLR,0.00,VWS V14.01,2013-03-26 14:08:00,
2013-03-26 09:13:00,32.4,24.7,30.29,NNW,332,5.0,13.0,73,0.00,,CLR,0.00,VWS V14.01,2013-03-26 14:13:00,
2013-03-26 09:18:00,32.8,25.1,30.30,WNW,283,2.0,13.0,73,0.00,,CLR,0.00,VWS V14.01,2013-03-26 14:18:00,
2013-03-26 09:23:00,33.2,25.2,30.30,WNW,300,4.0,13.0,72,0.00,,CLR,0.00,VWS V14.01,2013-03-26 14:23:00,
2013-03-26 09:28:00,33.8,25.7,30.30,WNW,303,1.0,13.0,72,0.00,,CLR,0.00,VWS V14.01,2013-03-26 14:28:00,
2013-03-26 09:30:00,34.0,25.9,30.30,NW,318,3.0,13.0,72,0.00,,CLR,0.00,VWS V14.01,2013-03-26 14:30:00,
2013-03-26 09:33:00,34.3,25.9,30.30,NNW,329,5.0,7.0,71,0.00,,CLR,0.00,VWS V14.01,2013-03-26 14:33:00,
2013-03-26 09:38:00,34.6,25.5,30.30,West,280,7.0,10.0,69,0.00,,CLR,0.00,VWS V14.01,2013-03-26 14:38:00,
2013-03-26 09:43:00,34.4,25.3,30.30,NW,304,3.0,10.0,69,0.00,,CLR,0.00,VWS V14.01,2013-03-26 14:43:00,
2013-03-26 09:48:00,34.6,25.5,30.30,WNW,298,3.0,10.0,69,0.00,,CLR,0.00,VWS V14.01,2013-03-26 14:48:00,
2013-03-26 09:53:00,34.9,25.4,30.30,NW,311,6.0,11.0,68,0.00,,CLR,0.00,VWS V14.01,2013-03-26 14:53:00,
2013-03-26 09:59:00,35.3,26.2,30.30,West,260,1.0,11.0,69,0.00,,CLR,0.00,VWS V14.01,2013-03-26 14:59:00,
2013-03-26 10:00:00,35.4,26.3,30.30,WNW,300,0.0,11.0,69,0.00,,CLR,0.00,VWS V14.01,2013-03-26 15:00:00,
2013-03-26 10:04:00,36.0,25.8,30.30,NW,311,9.0,12.0,66,0.00,,CLR,0.00,VWS V14.01,2013-03-26 15:04:00,
2013-03-26 10:09:00,36.4,26.1,30.30,North,355,9.0,12.0,66,0.00,,CLR,0.00,VWS V14.01,2013-03-26 15:09:00,
2013-03-26 10:14:00,36.8,26.1,30.30,NW,305,7.0,12.0,65,0.00,,CLR,0.00,VWS V14.01,2013-03-26 15:14:00,
2013-03-26 10:19:00,36.9,25.9,30.30,North,9,5.0,12.0,64,0.00,,CLR,0.00,VWS V14.01,2013-03-26 15:19:00,
2013-03-26 10:24:00,37.4,26.0,30.30,NW,311,6.0,12.0,63,0.00,,CLR,0.00,VWS V14.01,2013-03-26 15:24:00,
2013-03-26 10:29:00,37.5,26.1,30.30,WNW,298,6.0,12.0,63,0.00,,CLR,0.00,VWS V14.01,2013-03-26 15:29:00,
2013-03-26 10:30:00,37.5,26.1,30.30,West,269,4.0,12.0,63,0.00,,CLR,0.00,VWS V14.01,2013-03-26 15:30:00,
2013-03-26 10:34:00,37.1,26.1,30.30,NNW,333,3.0,7.0,64,0.00,,CLR,0.00,VWS V14.01,2013-03-26 15:34:00,
2013-03-26 10:39:00,37.0,25.6,30.30,West,265,5.0,8.0,63,0.00,,CLR,0.00,VWS V14.01,2013-03-26 15:39:00,
2013-03-26 10:44:00,36.8,25.8,30.30,North,360,4.0,9.0,64,0.00,,SCT028,0.00,VWS V14.01,2013-03-26 15:44:00,
2013-03-26 10:49:00,36.4,25.0,30.30,NNW,333,10.0,11.0,63,0.00,,SCT028,0.00,VWS V14.01,2013-03-26 15:49:00,
2013-03-26 10:54:00,36.3,24.5,30.30,North,5,6.0,11.0,62,0.00,,SCT028,0.00,VWS V14.01,2013-03-26 15:54:00,
2013-03-26 10:59:00,36.7,24.9,30.30,West,279,0.0,11.0,62,0.00,,SCT028,0.00,VWS V14.01,2013-03-26 15:59:00,
2013-03-26 11:00:00,36.8,25.0,30.30,WNW,294,1.0,11.0,62,0.00,,CLR,0.00,VWS V14.01,2013-03-26 16:00:00,
2013-03-26 11:04:00,37.7,25.1,30.30,NW,309,5.0,11.0,60,0.00,,SCT028,0.00,VWS V14.01,2013-03-26 16:04:00,
2013-03-26 11:09:00,38.0,25.8,30.30,NNE,14,2.0,11.0,61,0.00,,SCT028,0.00,VWS V14.01,2013-03-26 16:09:00,
2013-03-26 11:15:00,38.4,25.3,30.31,NW,323,8.0,11.0,59,0.00,,SCT028,0.00,VWS V14.01,2013-03-26 16:15:00,
2013-03-26 11:20:00,38.2,23.9,30.31,North,360,7.0,11.0,56,0.00,,SCT028,0.00,VWS V14.01,2013-03-26 16:20:00,
2013-03-26 11:25:00,39.0,25.1,30.30,NNW,340,7.0,11.0,57,0.00,,SCT028,0.00,VWS V14.01,2013-03-26 16:25:00,
2013-03-26 11:30:00,39.1,24.7,30.30,WNW,303,1.0,2.0,56,0.00,,SCT028,0.00,VWS V14.01,2013-03-26 16:30:00,
2013-03-26 11:35:00,38.9,24.1,30.30,NNW,336,8.0,10.0,55,0.00,,SCT028,0.00,VWS V14.01,2013-03-26 16:35:00,
2013-03-26 11:40:00,38.7,23.9,30.31,North,355,4.0,11.0,55,0.00,,FEW028,0.00,VWS V14.01,2013-03-26 16:40:00,
2013-03-26 11:45:00,39.6,24.3,30.30,NNE,17,4.0,11.0,54,0.00,,FEW028,0.00,VWS V14.01,2013-03-26 16:45:00,
2013-03-26 11:51:00,40.3,24.1,30.30,NNW,340,3.0,11.0,52,0.00,,FEW028,0.00,VWS V14.01,2013-03-26 16:51:00,
2013-03-26 11:55:00,40.9,24.2,30.30,NW,319,8.0,11.0,51,0.00,,FEW028,0.00,VWS V14.01,2013-03-26 16:55:00,
2013-03-26 12:00:00,41.5,24.7,30.30,North,9,3.0,11.0,51,0.00,,CLR,0.00,VWS V14.01,2013-03-26 17:00:00,
2013-03-26 12:01:00,41.6,25.3,30.30,NNW,345,4.0,6.0,52,0.00,,FEW028,0.00,VWS V14.01,2013-03-26 17:01:00,
2013-03-26 12:06:00,41.6,24.8,30.30,NW,309,3.0,10.0,51,0.00,,FEW028,0.00,VWS V14.01,2013-03-26 17:06:00,
2013-03-26 12:11:00,40.9,24.2,30.30,West,267,0.0,10.0,51,0.00,,FEW028,0.00,VWS V14.01,2013-03-26 17:11:00,
2013-03-26 12:16:00,40.7,24.0,30.30,West,280,0.0,10.0,51,0.00,,FEW028,0.00,VWS V14.01,2013-03-26 17:16:00,
2013-03-26 12:21:00,40.7,24.5,30.30,NNW,342,5.0,10.0,52,0.00,,FEW028,0.00,VWS V14.01,2013-03-26 17:21:00,
2013-03-26 12:26:00,41.0,24.3,30.30,WNW,302,3.0,11.0,51,0.00,,FEW028,0.00,VWS V14.01,2013-03-26 17:26:00,
2013-03-26 12:30:00,41.5,25.2,30.30,West,262,8.0,11.0,52,0.00,,CLR,0.00,VWS V14.01,2013-03-26 17:30:00,
2013-03-26 12:32:00,41.8,24.5,30.30,NW,312,8.0,8.0,50,0.00,,FEW028,0.00,VWS V14.01,2013-03-26 17:32:00,
2013-03-26 12:37:00,42.2,23.9,30.29,WSW,247,5.0,9.0,48,0.00,,FEW028,0.00,VWS V14.01,2013-03-26 17:37:00,
2013-03-26 12:42:00,42.1,23.8,30.29,West,262,3.0,9.0,48,0.00,,SCT036,0.00,VWS V14.01,2013-03-26 17:42:00,
2013-03-26 12:47:00,41.6,22.9,30.29,NW,312,4.0,9.0,47,0.00,,SCT036,0.00,VWS V14.01,2013-03-26 17:47:00,
2013-03-26 12:52:00,41.9,24.1,30.29,West,271,5.0,9.0,49,0.00,,SCT036,0.00,VWS V14.01,2013-03-26 17:52:00,
2013-03-26 12:57:00,42.4,24.1,30.29,North,349,4.0,9.0,48,0.00,,SCT036,0.00,VWS V14.01,2013-03-26 17:57:00,
2013-03-26 13:00:00,42.3,24.0,30.29,West,275,4.0,10.0,48,0.00,,CLR,0.00,VWS V14.01,2013-03-26 18:00:00,
2013-03-26 13:02:00,42.4,25.1,30.29,NW,314,2.0,5.0,50,0.00,,SCT036,0.00,VWS V14.01,2013-03-26 18:02:00,
2013-03-26 13:07:00,43.2,24.9,30.29,NW,310,9.0,12.0,48,0.00,,SCT036,0.00,VWS V14.01,2013-03-26 18:07:00,
2013-03-26 13:12:00,43.4,24.5,30.28,WNW,292,2.0,12.0,47,0.00,,SCT036,0.00,VWS V14.01,2013-03-26 18:12:00,
2013-03-26 13:17:00,43.9,24.0,30.28,WNW,285,0.0,12.0,45,0.00,,SCT036,0.00,VWS V14.01,2013-03-26 18:17:00,
2013-03-26 13:22:00,44.0,24.6,30.28,NNW,348,2.0,12.0,46,0.00,,SCT036,0.00,VWS V14.01,2013-03-26 18:22:00,
2013-03-26 13:28:00,43.9,24.5,30.28,WSW,252,1.0,12.0,46,0.00,,SCT036,0.00,VWS V14.01,2013-03-26 18:28:00,
2013-03-26 13:30:00,44.2,25.8,30.28,NW,312,5.0,12.0,48,0.00,,CLR,0.00,VWS V14.01,2013-03-26 18:30:00,
2013-03-26 13:33:00,44.7,24.7,30.28,WSW,246,1.0,7.0,45,0.00,,SCT036,0.00,VWS V14.01,2013-03-26 18:33:00,
2013-03-26 13:38:00,45.0,24.4,30.28,NNW,345,5.0,12.0,44,0.00,,SCT036,0.00,VWS V14.01,2013-03-26 18:38:00,
2013-03-26 13:43:00,44.6,24.6,30.27,West,259,2.0,12.0,45,0.00,,BKN042,0.00,VWS V14.01,2013-03-26 18:43:00,
2013-03-26 13:48:00,45.1,25.0,30.27,WSW,243,6.0,12.0,45,0.00,,BKN042,0.00,VWS V14.01,2013-03-26 18:48:00,
2013-03-26 13:53:00,45.0,25.5,30.27,West,277,5.0,12.0,46,0.00,,BKN042,0.00,VWS V14.01,2013-03-26 18:53:00,
2013-03-26 13:58:00,44.7,23.6,30.27,West,277,4.0,12.0,43,0.00,,BKN042,0.00,VWS V14.01,2013-03-26 18:58:00,
2013-03-26 14:00:00,44.4,23.9,30.27,WNW,301,8.0,12.0,44,0.00,,CLR,0.00,VWS V14.01,2013-03-26 19:00:00,
2013-03-26 14:03:00,44.2,23.7,30.27,West,273,3.0,9.0,44,0.00,,BKN042,0.00,VWS V14.01,2013-03-26 19:03:00,
2013-03-26 14:08:00,44.3,24.3,30.27,West,266,3.0,9.0,45,0.00,,BKN042,0.00,VWS V14.01,2013-03-26 19:08:00,
2013-03-26 14:13:00,44.3,25.4,30.26,WSW,244,5.0,9.0,47,0.00,,BKN042,0.00,VWS V14.01,2013-03-26 19:13:00,
2013-03-26 14:19:00,44.6,24.6,30.26,NW,311,7.0,9.0,45,0.00,,BKN042,0.00,VWS V14.01,2013-03-26 19:19:00,
2013-03-26 14:24:00,44.4,23.3,30.26,WSW,254,2.0,9.0,43,0.00,,BKN042,0.00,VWS V14.01,2013-03-26 19:24:00,
2013-03-26 14:29:00,44.8,24.2,30.26,WNW,290,3.0,9.0,44,0.00,,BKN042,0.00,VWS V14.01,2013-03-26 19:29:00,
2013-03-26 14:30:00,44.9,25.4,30.26,NW,314,7.0,9.0,46,0.00,,CLR,0.00,VWS V14.01,2013-03-26 19:30:00,
2013-03-26 14:34:00,45.5,25.9,30.26,West,264,4.0,8.0,46,0.00,,BKN042,0.00,VWS V14.01,2013-03-26 19:34:00,
2013-03-26 14:39:00,45.7,24.5,30.26,NW,317,2.0,9.0,43,0.00,,BKN042,0.00,VWS V14.01,2013-03-26 19:39:00,
2013-03-26 14:44:00,45.1,25.0,30.26,WNW,300,5.0,9.0,45,0.00,,SCT046,0.00,VWS V14.01,2013-03-26 19:44:00,
2013-03-26 14:49:00,45.3,24.1,30.26,West,274,5.0,9.0,43,0.00,,SCT046,0.00,VWS V14.01,2013-03-26 19:49:00,
2013-03-26 14:54:00,45.6,24.4,30.26,WNW,282,4.0,13.0,43,0.00,,SCT046,0.00,VWS V14.01,2013-03-26 19:54:00,
2013-03-26 14:59:00,45.6,23.9,30.25,WSW,244,0.0,13.0,42,0.00,,SCT046,0.00,VWS V14.01,2013-03-26 19:59:00,
2013-03-26 15:00:00,45.6,23.9,30.25,NW,324,1.0,13.0,42,0.00,,CLR,0.00,VWS V14.01,2013-03-26 20:00:00,
2013-03-26 15:04:00,45.5,25.4,30.25,West,263,2.0,8.0,45,0.00,,SCT046,0.00,VWS V14.01,2013-03-26 20:04:00,
2013-03-26 15:10:00,45.1,23.4,30.26,NW,313,2.0,8.0,42,0.00,,SCT046,0.00,VWS V14.01,2013-03-26 20:10:00,
2013-03-26 15:15:00,45.4,24.2,30.26,WNW,300,7.0,9.0,43,0.00,,SCT046,0.00,VWS V14.01,2013-03-26 20:15:00,
2013-03-26 15:20:00,45.5,24.3,30.26,WNW,288,1.0,10.0,43,0.00,,SCT046,0.00,VWS V14.01,2013-03-26 20:20:00,
2013-03-26 15:25:00,45.5,23.8,30.25,WNW,290,5.0,10.0,42,0.00,,SCT046,0.00,VWS V14.01,2013-03-26 20:25:00,
2013-03-26 15:30:00,45.6,23.3,30.25,NW,304,1.0,3.0,41,0.00,,SCT046,0.00,VWS V14.01,2013-03-26 20:30:00,
2013-03-26 15:35:00,45.1,23.4,30.25,WNW,298,3.0,6.0,42,0.00,,SCT046,0.00,VWS V14.01,2013-03-26 20:35:00,
2013-03-26 15:40:00,45.5,23.8,30.25,WSW,238,3.0,9.0,42,0.00,,SCT046,0.00,VWS V14.01,2013-03-26 20:40:00,
2013-03-26 15:45:00,45.5,23.8,30.25,WNW,289,4.0,10.0,42,0.00,,FEW049,0.00,VWS V14.01,2013-03-26 20:45:00,
2013-03-26 15:50:00,45.3,23.6,30.24,West,275,5.0,10.0,42,0.00,,FEW049,0.00,VWS V14.01,2013-03-26 20:50:00,
2013-03-26 15:55:00,45.5,24.9,30.24,NNW,331,3.0,10.0,44,0.00,,FEW049,0.00,VWS V14.01,2013-03-26 20:55:00,
2013-03-26 16:00:00,45.9,23.5,30.24,West,281,1.0,3.0,41,0.00,,FEW049,0.00,VWS V14.01,2013-03-26 21:00:00,
2013-03-26 16:05:00,46.2,23.8,30.24,WNW,284,2.0,8.0,41,0.00,,FEW049,0.00,VWS V14.01,2013-03-26 21:05:00,
2013-03-26 16:10:00,46.2,24.4,30.24,West,268,8.0,11.0,42,0.00,,FEW049,0.00,VWS V14.01,2013-03-26 21:10:00,
2013-03-26 16:15:00,46.1,24.3,30.24,WNW,300,3.0,11.0,42,0.00,,FEW049,0.00,VWS V14.01,2013-03-26 21:15:00,
2013-03-26 16:21:00,45.9,24.1,30.24,West,267,7.0,11.0,42,0.00,,FEW049,0.00,VWS V14.01,2013-03-26 21:21:00,
2013-03-26 16:26:00,46.0,24.2,30.23,WSW,243,3.0,11.0,42,0.00,,FEW049,0.00,VWS V14.01,2013-03-26 21:26:00,
2013-03-26 16:30:00,46.1,23.7,30.24,West,261,5.0,11.0,41,0.00,,CLR,0.00,VWS V14.01,2013-03-26 21:30:00,
2013-03-26 16:31:00,46.1,23.7,30.23,WSW,249,3.0,5.0,41,0.00,,FEW049,0.00,VWS V14.01,2013-03-26 21:31:00,
2013-03-26 16:36:00,45.9,24.1,30.23,West,267,5.0,8.0,42,0.00,,FEW049,0.00,VWS V14.01,2013-03-26 21:36:00,
2013-03-26 16:41:00,46.1,24.9,30.23,West,259,1.0,8.0,43,0.00,,CLR,0.00,VWS V14.01,2013-03-26 21:41:00,
2013-03-26 16:46:00,46.2,25.0,30.23,WNW,286,4.0,9.0,43,0.00,,CLR,0.00,VWS V14.01,2013-03-26 21:46:00,
2013-03-26 16:51:00,46.6,23.6,30.23,West,279,5.0,9.0,40,0.00,,CLR,0.00,VWS V14.01,2013-03-26 21:51:00,
2013-03-26 16:57:00,46.1,23.7,30.23,NNW,335,4.0,9.0,41,0.00,,CLR,0.00,VWS V14.01,2013-03-26 21:57:00,
2013-03-26 17:00:00,45.9,24.1,30.23,NW,304,4.0,9.0,42,0.00,,CLR,0.00,VWS V14.01,2013-03-26 22:00:00,
2013-03-26 17:02:00,45.8,22.9,30.23,WSW,258,0.0,7.0,40,0.00,,CLR,0.00,VWS V14.01,2013-03-26 22:02:00,
2013-03-26 17:07:00,45.6,23.3,30.23,WNW,296,4.0,7.0,41,0.00,,CLR,0.00,VWS V14.01,2013-03-26 22:07:00,
2013-03-26 17:13:00,45.2,22.9,30.23,NW,322,0.0,11.0,41,0.00,,CLR,0.00,VWS V14.01,2013-03-26 22:13:00,
2013-03-26 17:18:00,45.1,22.8,30.23,West,263,3.0,11.0,41,0.00,,CLR,0.00,VWS V14.01,2013-03-26 22:18:00,
2013-03-26 17:23:00,44.9,23.2,30.23,West,267,3.0,11.0,42,0.00,,CLR,0.00,VWS V14.01,2013-03-26 22:23:00,
2013-03-26 17:28:00,44.9,23.2,30.23,WNW,299,2.0,11.0,42,0.00,,CLR,0.00,VWS V14.01,2013-03-26 22:28:00,
2013-03-26 17:30:00,44.8,23.1,30.22,WNW,289,4.0,11.0,42,0.00,,CLR,0.00,VWS V14.01,2013-03-26 22:30:00,
2013-03-26 17:33:00,44.7,23.0,30.22,NW,319,1.0,6.0,42,0.00,,CLR,0.00,VWS V14.01,2013-03-26 22:33:00,
2013-03-26 17:38:00,44.5,23.4,30.23,West,260,4.0,7.0,43,0.00,,CLR,0.00,VWS V14.01,2013-03-26 22:38:00,
2013-03-26 17:43:00,44.6,23.5,30.23,WSW,257,2.0,7.0,43,0.00,,CLR,0.00,VWS V14.01,2013-03-26 22:43:00,
2013-03-26 17:48:00,44.7,23.0,30.23,NW,321,5.0,7.0,42,0.00,,CLR,0.00,VWS V14.01,2013-03-26 22:48:00,
2013-03-26 17:54:00,44.8,23.1,30.23,West,267,1.0,8.0,42,0.00,,CLR,0.00,VWS V14.01,2013-03-26 22:54:00,
2013-03-26 17:59:00,45.1,24.0,30.23,WSW,245,4.0,8.0,43,0.00,,CLR,0.00,VWS V14.01,2013-03-26 22:59:00,
2013-03-26 18:00:00,45.1,23.4,30.23,West,270,3.0,8.0,42,0.00,,CLR,0.00,VWS V14.01,2013-03-26 23:00:00,
2013-03-26 18:04:00,45.1,23.4,30.22,WNW,289,3.0,7.0,42,0.00,,CLR,0.00,VWS V14.01,2013-03-26 23:04:00,
2013-03-26 18:09:00,45.0,23.9,30.22,West,259,3.0,7.0,43,0.00,,CLR,0.00,VWS V14.01,2013-03-26 23:09:00,
2013-03-26 18:14:00,44.7,23.0,30.22,West,280,1.0,7.0,42,0.00,,CLR,0.00,VWS V14.01,2013-03-26 23:14:00,
2013-03-26 18:19:00,44.5,23.4,30.23,WNW,296,1.0,7.0,43,0.00,,CLR,0.00,VWS V14.01,2013-03-26 23:19:00,
2013-03-26 18:24:00,44.3,23.2,30.22,NW,305,1.0,7.0,43,0.00,,CLR,0.00,VWS V14.01,2013-03-26 23:24:00,
2013-03-26 18:29:00,44.1,23.0,30.22,WNW,303,3.0,7.0,43,0.00,,CLR,0.00,VWS V14.01,2013-03-26 23:29:00,
2013-03-26 18:30:00,44.1,23.0,30.22,NW,318,1.0,7.0,43,0.00,,CLR,0.00,VWS V14.01,2013-03-26 23:30:00,
2013-03-26 18:34:00,44.0,23.0,30.22,WNW,287,2.0,6.0,43,0.00,,CLR,0.00,VWS V14.01,2013-03-26 23:34:00,
2013-03-26 18:39:00,43.8,22.8,30.22,WNW,291,4.0,6.0,43,0.00,,CLR,0.00,VWS V14.01,2013-03-26 23:39:00,
2013-03-26 18:44:00,43.6,23.1,30.22,WSW,257,2.0,6.0,44,0.00,,CLR,0.00,VWS V14.01,2013-03-26 23:44:00,
2013-03-26 18:50:00,43.3,22.9,30.22,WNW,298,0.0,6.0,44,0.00,,CLR,0.00,VWS V14.01,2013-03-26 23:50:00,
2013-03-26 18:55:00,43.0,23.1,30.22,WNW,289,1.0,6.0,45,0.00,,CLR,0.00,VWS V14.01,2013-03-26 23:55:00,
2013-03-26 19:00:00,42.8,23.5,30.22,NW,305,0.0,6.0,46,0.00,,CLR,0.00,VWS V14.01,2013-03-27 00:00:00,
2013-03-26 19:05:00,42.5,23.2,30.22,WNW,299,0.0,1.0,46,0.00,,CLR,0.00,VWS V14.01,2013-03-27 00:05:00,
2013-03-26 19:10:00,42.2,23.4,30.22,WNW,294,0.0,2.0,47,0.00,,CLR,0.00,VWS V14.01,2013-03-27 00:10:00,
2013-03-26 19:15:00,41.9,23.2,30.22,WNW,294,0.0,2.0,47,0.00,,CLR,0.00,VWS V14.01,2013-03-27 00:15:00,
2013-03-26 19:20:00,41.5,23.3,30.22,WNW,294,0.0,2.0,48,0.00,,CLR,0.00,VWS V14.01,2013-03-27 00:20:00,
2013-03-26 19:25:00,41.1,23.9,30.22,WNW,294,0.0,2.0,50,0.00,,CLR,0.00,VWS V14.01,2013-03-27 00:25:00,
2013-03-26 19:30:00,40.6,23.4,30.23,WNW,294,0.0,0.0,50,0.00,,CLR,0.00,VWS V14.01,2013-03-27 00:30:00,
2013-03-26 19:35:00,40.2,23.5,30.22,WNW,294,0.0,0.0,51,0.00,,CLR,0.00,VWS V14.01,2013-03-27 00:35:00,
2013-03-26 19:40:00,39.7,24.0,30.23,WNW,294,0.0,0.0,53,0.00,,CLR,0.00,VWS V14.01,2013-03-27 00:40:00,
2013-03-26 19:45:00,39.2,24.0,30.23,WNW,294,0.0,0.0,54,0.00,,CLR,0.00,VWS V14.01,2013-03-27 00:45:00,
2013-03-26 19:50:00,38.7,24.4,30.22,WNW,294,0.0,0.0,56,0.00,,CLR,0.00,VWS V14.01,2013-03-27 00:50:00,
2013-03-26 19:55:00,38.3,24.4,30.23,WNW,294,0.0,0.0,57,0.00,,CLR,0.00,VWS V14.01,2013-03-27 00:55:00,
2013-03-26 20:00:00,38.0,24.5,30.22,WNW,294,0.0,0.0,58,0.00,,CLR,0.00,VWS V14.01,2013-03-27 01:00:00,
2013-03-26 20:05:00,37.5,24.1,30.23,WNW,294,0.0,0.0,58,0.00,,CLR,0.00,VWS V14.01,2013-03-27 01:05:00,
2013-03-26 20:11:00,37.0,24.4,30.23,WNW,294,0.0,0.0,60,0.00,,CLR,0.00,VWS V14.01,2013-03-27 01:11:00,
2013-03-26 20:16:00,36.5,24.7,30.23,WNW,294,0.0,0.0,62,0.00,,CLR,0.00,VWS V14.01,2013-03-27 01:16:00,
2013-03-26 20:21:00,36.2,24.1,30.23,WNW,294,0.0,0.0,61,0.00,,CLR,0.00,VWS V14.01,2013-03-27 01:21:00,
2013-03-26 20:27:00,35.6,23.9,30.23,WNW,294,0.0,0.0,62,0.00,,CLR,0.00,VWS V14.01,2013-03-27 01:27:00,
2013-03-26 20:30:00,35.3,24.4,30.23,WNW,294,0.0,0.0,64,0.00,,CLR,0.00,VWS V14.01,2013-03-27 01:30:00,
2013-03-26 20:32:00,35.1,24.2,30.23,WNW,294,0.0,0.0,64,0.00,,CLR,0.00,VWS V14.01,2013-03-27 01:32:00,
2013-03-26 20:37:00,34.8,24.2,30.23,WNW,294,0.0,0.0,65,0.00,,CLR,0.00,VWS V14.01,2013-03-27 01:37:00,
2013-03-26 20:42:00,34.5,24.3,30.23,WNW,294,0.0,0.0,66,0.00,,CLR,0.00,VWS V14.01,2013-03-27 01:42:00,
2013-03-26 20:47:00,34.3,24.1,30.23,WNW,294,0.0,0.0,66,0.00,,CLR,0.00,VWS V14.01,2013-03-27 01:47:00,
2013-03-26 20:52:00,34.3,24.1,30.23,WNW,294,0.0,0.0,66,0.00,,CLR,0.00,VWS V14.01,2013-03-27 01:52:00,
2013-03-26 20:57:00,34.4,23.9,30.23,WNW,294,0.0,0.0,65,0.00,,CLR,0.00,VWS V14.01,2013-03-27 01:57:00,
2013-03-26 21:00:00,34.5,24.0,30.23,WNW,294,0.0,0.0,65,0.00,,CLR,0.00,VWS V14.01,2013-03-27 02:00:00,
2013-03-26 21:03:00,34.6,24.1,30.23,WNW,294,0.0,0.0,65,0.00,,CLR,0.00,VWS V14.01,2013-03-27 02:03:00,
2013-03-26 21:08:00,34.7,24.1,30.23,WNW,294,0.0,0.0,65,0.00,,CLR,0.00,VWS V14.01,2013-03-27 02:08:00,
2013-03-26 21:13:00,34.7,24.1,30.24,WNW,294,0.0,0.0,65,0.00,,CLR,0.00,VWS V14.01,2013-03-27 02:13:00,
2013-03-26 21:18:00,34.7,24.1,30.23,WNW,294,0.0,0.0,65,0.00,,CLR,0.00,VWS V14.01,2013-03-27 02:18:00,
2013-03-26 21:23:00,34.7,24.1,30.24,WNW,294,0.0,0.0,65,0.00,,CLR,0.00,VWS V14.01,2013-03-27 02:23:00,
2013-03-26 21:28:00,34.6,24.1,30.24,WNW,294,0.0,0.0,65,0.00,,CLR,0.00,VWS V14.01,2013-03-27 02:28:00,
2013-03-26 21:30:00,34.6,24.1,30.24,WNW,294,0.0,0.0,65,0.00,,CLR,0.00,VWS V14.01,2013-03-27 02:30:00,
2013-03-26 21:33:00,34.6,24.1,30.24,WNW,294,0.0,0.0,65,0.00,,CLR,0.00,VWS V14.01,2013-03-27 02:33:00,
2013-03-26 21:38:00,34.6,24.1,30.24,WNW,294,0.0,0.0,65,0.00,,CLR,0.00,VWS V14.01,2013-03-27 02:38:00,
2013-03-26 21:43:00,34.5,24.0,30.23,WNW,294,0.0,0.0,65,0.00,,CLR,0.00,VWS V14.01,2013-03-27 02:43:00,
2013-03-26 21:48:00,34.5,23.6,30.24,NNW,346,0.0,2.0,64,0.00,,CLR,0.00,VWS V14.01,2013-03-27 02:48:00,
2013-03-26 21:53:00,34.6,23.3,30.24,NNW,337,0.0,2.0,63,0.00,,CLR,0.00,VWS V14.01,2013-03-27 02:53:00,
2013-03-26 21:58:00,34.6,23.3,30.24,NNW,342,0.0,2.0,63,0.00,,CLR,0.00,VWS V14.01,2013-03-27 02:58:00,
2013-03-26 22:00:00,34.5,23.2,30.24,NNW,342,0.0,2.0,63,0.00,,CLR,0.00,VWS V14.01,2013-03-27 03:00:00,
2013-03-26 22:03:00,34.4,23.1,30.23,NNW,342,0.0,0.0,63,0.00,,CLR,0.00,VWS V14.01,2013-03-27 03:03:00,
2013-03-26 22:08:00,34.2,23.3,30.24,NNW,335,0.0,2.0,64,0.00,,CLR,0.00,VWS V14.01,2013-03-27 03:08:00,
2013-03-26 22:13:00,33.9,23.0,30.24,NNW,334,0.0,2.0,64,0.00,,CLR,0.00,VWS V14.01,2013-03-27 03:13:00,
2013-03-26 22:18:00,33.6,23.1,30.24,NNW,342,0.0,2.0,65,0.00,,CLR,0.00,VWS V14.01,2013-03-27 03:18:00,
2013-03-26 22:23:00,33.4,23.3,30.24,NNW,336,0.0,2.0,66,0.00,,CLR,0.00,VWS V14.01,2013-03-27 03:23:00,
2013-03-26 22:28:00,33.3,23.2,30.24,NNW,336,0.0,2.0,66,0.00,,CLR,0.00,VWS V14.01,2013-03-27 03:28:00,
2013-03-26 22:30:00,33.3,23.2,30.24,NNW,336,0.0,2.0,66,0.00,,CLR,0.00,VWS V14.01,2013-03-27 03:30:00,
2013-03-26 22:33:00,33.3,23.2,30.24,NNW,336,0.0,0.0,66,0.00,,CLR,0.00,VWS V14.01,2013-03-27 03:33:00,
2013-03-26 22:38:00,33.3,23.2,30.24,NNW,336,0.0,0.0,66,0.00,,CLR,0.00,VWS V14.01,2013-03-27 03:38:00,
2013-03-26 22:43:00,33.4,23.3,30.24,NNW,336,0.0,0.0,66,0.00,,CLR,0.00,VWS V14.01,2013-03-27 03:43:00,
2013-03-26 22:49:00,33.4,23.3,30.24,NNW,336,0.0,0.0,66,0.00,,CLR,0.00,VWS V14.01,2013-03-27 03:49:00,
2013-03-26 22:54:00,33.4,23.3,30.24,NNW,336,0.0,0.0,66,0.00,,CLR,0.00,VWS V14.01,2013-03-27 03:54:00,
2013-03-26 22:59:00,33.4,23.6,30.24,NNW,336,0.0,0.0,67,0.00,,CLR,0.00,VWS V14.01,2013-03-27 03:59:00,
2013-03-26 23:00:00,33.4,23.3,30.24,NNW,336,0.0,0.0,66,0.00,,CLR,0.00,VWS V14.01,2013-03-27 04:00:00,
2013-03-26 23:03:00,33.4,23.3,30.24,NNW,341,0.0,0.0,66,0.00,,CLR,0.00,VWS V14.01,2013-03-27 04:03:00,
2013-03-26 23:08:00,33.3,23.5,30.25,North,355,0.0,2.0,67,0.00,,CLR,0.00,VWS V14.01,2013-03-27 04:08:00,
2013-03-26 23:13:00,33.2,23.5,30.25,North,355,0.0,2.0,67,0.00,,CLR,0.00,VWS V14.01,2013-03-27 04:13:00,
2013-03-26 23:18:00,33.1,23.4,30.25,NW,324,0.0,2.0,67,0.00,,CLR,0.00,VWS V14.01,2013-03-27 04:18:00,
2013-03-26 23:23:00,33.1,23.4,30.25,NW,325,0.0,2.0,67,0.00,,CLR,0.00,VWS V14.01,2013-03-27 04:23:00,
2013-03-26 23:29:00,33.0,23.2,30.25,NNW,327,0.0,2.0,67,0.00,,CLR,0.00,VWS V14.01,2013-03-27 04:29:00,
2013-03-26 23:30:00,33.0,23.2,30.24,NNW,327,0.0,2.0,67,0.00,,CLR,0.00,VWS V14.01,2013-03-27 04:30:00,
2013-03-26 23:34:00,33.0,23.2,30.25,NNW,340,0.0,0.0,67,0.00,,CLR,0.00,VWS V14.01,2013-03-27 04:34:00,
2013-03-26 23:39:00,32.9,23.5,30.25,NNW,340,0.0,0.0,68,0.00,,CLR,0.00,VWS V14.01,2013-03-27 04:39:00,
2013-03-26 23:44:00,32.8,23.4,30.25,NW,313,0.0,2.0,68,0.00,,CLR,0.00,VWS V14.01,2013-03-27 04:44:00,
2013-03-26 23:49:00,32.7,23.3,30.25,NW,305,0.0,2.0,68,0.00,,CLR,0.00,VWS V14.01,2013-03-27 04:49:00,
2013-03-26 23:54:00,32.6,23.2,30.25,NW,305,0.0,2.0,68,0.00,,CLR,0.00,VWS V14.01,2013-03-27 04:54:00,
2013-03-26 23:59:00,32.4,23.0,30.25,NNW,348,0.0,2.0,68,0.00,,CLR,0.00,VWS V14.01,2013-03-27 04:59:00,